"read_dt","SO2 (ppb)","flags","PMT voltage (V)","lamp voltage (V)","lamp intensity (Hz)","internal temp (C)","react chamber temp (C)","sample flow (l/min)","pres (mmHg)","SO2 bkg (ppb)","SO2 coefficient"
2018-10-02 00:00:00,-3.404E-01,4C000000*,-702.6,960.554,89,27.9,44.9,0.403,727.2,2.2,1.050*
2018-10-02 00:01:00,-3.359E-01,4C000000*,-703.0,961.767,91,27.9,45.1,0.403,726.9,2.2,1.050*
2018-10-02 00:02:00,-3.144E-01,4C000000*,-702.6,960.554,89,28.0,44.8,0.403,727.2,2.2,1.050*
2018-10-02 00:03:00,-3.413E-01,4C000000*,-702.6,961.767,90,28.0,45.1,0.403,727.2,2.2,1.050*
2018-10-02 00:04:00,-2.810E-01,4C000000*,-703.4,960.554,90,27.9,44.8,0.403,727.2,2.2,1.050*
2018-10-02 00:05:00,-2.606E-01,4C000000*,-702.6,961.767,90,27.9,45.0,0.403,727.2,2.2,1.050*
2018-10-02 00:06:00,-3.336E-01,4C000000*,-703.0,960.958,91,27.9,45.0,0.403,727.2,2.2,1.050*
2018-10-02 00:07:00,-3.814E-01,4C000000*,-702.6,960.958,90,27.9,44.9,0.403,727.2,2.2,1.050*
2018-10-02 00:08:00,-2.891E-01,4C000000*,-702.6,960.958,90,27.9,45.0,0.403,727.2,2.2,1.050*
2018-10-02 00:09:00,-2.430E-01,4C000000*,-702.6,958.532,89,27.9,44.8,0.403,727.2,2.2,1.050*
2018-10-02 00:10:00,-3.376E-01,4C000000*,-703.0,960.958,90,27.8,45.1,0.403,727.2,2.2,1.050*
"read_dt","SO2 (ppb)","flags","PMT voltage (V)","lamp voltage (V)","lamp intensity (Hz)","internal temp (C)","react chamber temp (C)","sample flow (l/min)","pres (mmHg)","SO2 bkg (ppb)","SO2 coefficient"
2018-10-02 08:46:00,6.763E-02,4C000045*,-703.4,939.936,87,14.1,16.7,0.398,727.8,2.2,1.050*
2018-10-02 08:47:00,5.555E-01,4C000005*,-703.7,953.277,90,14.3,17.6,0.398,727.2,2.2,1.050*
2018-10-02 08:48:00,6.848E-01,4C000005*,-703.7,956.511,89,14.5,18.4,0.399,727.5,2.2,1.050*
2018-10-02 08:49:00,4.135E-01,4C000005*,-703.4,958.128,90,14.6,19.3,0.398,727.5,2.2,1.050*
2018-10-02 08:50:00,4.762E-01,4C000005*,-703.7,959.341,90,14.8,20.2,0.399,727.2,2.2,1.050*
2018-10-02 08:51:00,4.998E-01,4C000005*,-704.1,957.724,89,14.9,21.0,0.398,727.2,2.2,1.050*
2018-10-02 08:52:00,4.357E-01,4C000005*,-703.4,959.745,90,15.1,21.8,0.399,727.2,2.2,1.050*
2018-10-02 08:53:00,3.505E-01,4C000005*,-703.4,958.532,91,15.3,22.6,0.399,727.2,2.2,1.050*
2018-10-02 08:54:00,3.551E-01,4C000005*,-703.4,960.958,90,15.5,23.4,0.399,726.9,2.2,1.050*
2018-10-02 08:55:00,3.472E-01,4C000005*,-703.4,960.958,91,15.6,24.2,0.399,726.9,2.2,1.050*
2018-10-02 08:56:00,3.783E-01,4C000005*,-703.0,960.958,91,15.7,24.9,0.399,726.9,2.2,1.050*
2018-10-02 08:57:00,4.067E-01,4C000005*,-703.4,961.767,89,15.9,25.6,0.399,726.9,2.2,1.050*
2018-10-02 08:58:00,3.618E-01,4C000005*,-704.1,962.979,90,16.1,26.3,0.398,726.9,2.2,1.050*
2018-10-02 08:59:00,3.070E-01,4C000005*,-703.7,962.575,90,16.3,27.0,0.399,726.6,2.2,1.050*
2018-10-02 09:00:00,3.443E-01,4C000005*,-703.4,962.171,90,16.4,27.6,0.399,726.6,2.2,1.050*
2018-10-02 09:01:00,4.041E-01,4C000005*,-703.4,962.979,89,16.5,28.3,0.399,726.9,2.2,1.050*
2018-10-02 09:02:00,1.868E-01,4C000005*,-703.4,962.979,90,16.7,28.9,0.399,726.9,2.2,1.050*
2018-10-02 09:03:00,2.707E-01,4C000005*,-703.4,964.192,91,16.9,29.4,0.399,726.9,2.2,1.050*
2018-10-02 09:04:00,1.862E-01,4C000005*,-703.7,964.192,90,17.0,30.0,0.399,726.9,2.2,1.050*
2018-10-02 09:05:00,2.194E-01,4C000005*,-703.4,962.979,90,17.1,30.6,0.399,726.9,2.2,1.050*
2018-10-02 09:06:00,9.600E-02,4C000005*,-703.4,962.171,87,17.3,31.2,0.399,726.9,2.2,1.050*
2018-10-02 09:07:00,2.202E-03,4C000005*,-703.4,963.788,90,17.4,31.7,0.399,726.6,2.2,1.050*
2018-10-02 09:08:00,1.042E-01,4C000005*,-703.4,962.979,90,17.5,32.2,0.399,726.9,2.2,1.050*
2018-10-02 09:09:00,1.206E-01,4C000005*,-703.4,963.788,90,17.7,32.7,0.399,726.9,2.2,1.050*
2018-10-02 09:10:00,2.104E-01,4C000005*,-703.4,963.384,90,17.8,33.2,0.399,726.9,2.2,1.050*
2018-10-02 09:11:00,2.416E-01,4C000005*,-703.0,964.597,89,17.9,33.6,0.399,726.9,2.2,1.050*
2018-10-02 09:12:00,8.401E-02,4C000005*,-703.4,965.001,90,18.1,34.1,0.399,726.9,2.2,1.050*
2018-10-02 09:13:00,1.343E-01,4C000005*,-703.4,964.192,90,18.2,34.5,0.399,726.6,2.2,1.050*
2018-10-02 09:14:00,1.087E-01,4C000005*,-703.4,965.405,90,18.2,34.9,0.399,726.9,2.2,1.050*
2018-10-02 09:15:00,1.517E-01,4C000005*,-703.4,965.405,90,18.3,35.3,0.399,726.6,2.2,1.050*
2018-10-02 09:16:00,1.473E-01,4C000005*,-703.7,963.384,90,18.5,35.7,0.399,726.9,2.2,1.050*
2018-10-02 09:17:00,3.228E-03,4C000005*,-703.4,965.001,91,18.6,36.1,0.399,726.9,2.2,1.050*
2018-10-02 09:18:00,3.505E-05,4C000005*,-703.4,963.788,91,18.6,36.5,0.399,726.9,2.2,1.050*
2018-10-02 09:19:00,-9.067E-03,4C000005*,-703.0,964.192,88,18.8,36.9,0.399,726.9,2.2,1.050*
2018-10-02 09:20:00,2.303E-02,4C000005*,-703.4,963.384,89,18.9,37.2,0.399,726.9,2.2,1.050*
2018-10-02 09:21:00,-2.937E-02,4C000005*,-703.4,965.405,90,18.9,37.6,0.399,726.9,2.2,1.050*
2018-10-02 09:22:00,7.861E-03,4C000005*,-703.4,964.597,89,19.1,38.0,0.399,726.9,2.2,1.050*
2018-10-02 09:23:00,3.415E-04,4C000005*,-703.0,964.597,89,19.2,38.3,0.399,726.9,2.2,1.050*
2018-10-02 09:24:00,-1.278E-01,4C000005*,-703.4,963.788,89,19.2,38.6,0.399,726.9,2.2,1.050*
2018-10-02 09:25:00,1.542E-02,4C000005*,-703.0,965.405,89,19.3,38.9,0.400,726.6,2.2,1.050*
2018-10-02 09:26:00,-4.707E-03,4C000005*,-703.0,963.384,88,19.4,39.2,0.399,726.6,2.2,1.050*
2018-10-02 09:27:00,-1.040E-01,4C000005*,-703.4,964.192,91,19.4,39.5,0.399,726.6,2.2,1.050*
2018-10-02 09:28:00,-2.589E-02,4C000005*,-703.4,964.192,87,19.5,39.8,0.399,726.9,2.2,1.050*
2018-10-02 09:29:00,-9.152E-02,4C000005*,-703.4,965.405,91,19.6,40.0,0.399,726.9,2.2,1.050*
2018-10-02 09:30:00,-1.061E-01,4C000005*,-703.4,966.214,91,19.7,40.3,0.400,726.6,2.2,1.050*
2018-10-02 09:31:00,-1.096E-01,4C000005*,-703.0,965.809,91,19.8,40.6,0.399,726.6,2.2,1.050*
2018-10-02 09:32:00,-8.732E-02,4C000005*,-703.0,965.405,89,19.9,40.9,0.399,726.6,2.2,1.050*
2018-10-02 09:33:00,-6.796E-02,4C000005*,-703.4,965.405,89,19.9,41.1,0.399,726.6,2.2,1.050*
2018-10-02 09:34:00,-1.137E-01,4C000005*,-703.0,964.597,90,20.0,41.3,0.400,726.6,2.2,1.050*
2018-10-02 09:35:00,-2.407E-01,4C000005*,-703.4,964.192,90,20.1,41.6,0.400,726.6,2.2,1.050*
2018-10-02 09:36:00,-9.809E-02,4C000005*,-703.0,965.001,87,20.1,41.8,0.400,726.6,2.2,1.050*
2018-10-02 09:37:00,-1.085E-01,4C000005*,-703.0,965.809,90,20.2,42.1,0.400,726.9,2.2,1.050*
2018-10-02 09:38:00,-1.470E-01,4C000005*,-703.4,965.405,87,20.3,42.3,0.399,726.9,2.2,1.050*
2018-10-02 09:39:00,-1.525E-01,4C000005*,-703.0,965.001,90,20.4,42.5,0.400,726.9,2.2,1.050*
2018-10-02 09:40:00,-2.000E-01,4C000005*,-703.4,962.979,90,20.4,42.7,0.400,726.9,2.2,1.050*
2018-10-02 09:41:00,-1.536E-01,4C000005*,-703.0,963.788,90,20.4,42.9,0.400,726.9,2.2,1.050*
2018-10-02 09:42:00,-1.589E-01,4C000000*,-703.4,964.597,88,20.6,43.1,0.400,726.9,2.2,1.050*
2018-10-02 09:43:00,-2.442E-01,4C000000*,-703.4,964.597,91,20.6,43.4,0.400,726.9,2.2,1.050*
2018-10-02 09:44:00,-1.649E-01,4C000000*,-703.4,964.597,90,20.7,43.6,0.400,726.9,2.2,1.050*
2018-10-02 09:45:00,-2.732E-01,4C000000*,-703.0,964.192,89,20.7,43.7,0.400,726.9,2.2,1.050*
2018-10-02 09:46:00,-2.566E-01,4C000000*,-703.0,964.192,90,20.8,43.8,0.400,726.9,2.2,1.050*
2018-10-02 09:47:00,-1.765E-01,4C000000*,-703.4,964.192,91,20.8,44.0,0.400,726.9,2.2,1.050*
2018-10-02 09:48:00,-1.121E-01,4C000000*,-703.4,964.192,90,20.9,44.2,0.401,726.9,2.2,1.050*
2018-10-02 09:49:00,-2.844E-01,4C000000*,-703.0,962.575,91,21.0,44.4,0.400,726.9,2.2,1.050*
2018-10-02 09:50:00,-2.379E-01,4C000000*,-703.0,963.788,91,21.0,44.5,0.400,726.9,2.2,1.050*
2018-10-02 09:51:00,-2.854E-01,4C000000*,-703.4,963.788,89,21.1,44.7,0.400,726.9,2.2,1.050*
2018-10-02 09:52:00,-3.728E-01,4C000000*,-703.0,964.192,91,21.1,44.8,0.400,726.9,2.2,1.050*
2018-10-02 09:53:00,-2.241E-01,4C000000*,-703.0,964.192,90,21.1,44.9,0.400,726.9,2.2,1.050*
2018-10-02 09:54:00,-2.624E-01,4C000000*,-703.4,965.001,89,21.2,45.0,0.400,726.9,2.2,1.050*
2018-10-02 09:55:00,-2.890E-01,4C000000*,-703.0,963.788,89,21.2,44.8,0.400,726.9,2.2,1.050*
2018-10-02 09:56:00,-3.021E-01,4C000000*,-703.0,963.788,89,21.3,44.8,0.400,726.9,2.2,1.050*
2018-10-02 09:57:00,-3.453E-01,4C000000*,-703.0,964.597,90,21.3,44.9,0.400,726.6,2.2,1.050*
2018-10-02 09:58:00,-2.076E-01,4C000000*,-703.4,963.384,88,21.3,45.1,0.400,726.9,2.2,1.050*
2018-10-02 09:59:00,-2.353E-01,4C000000*,-703.4,964.192,90,21.3,44.8,0.400,726.9,2.2,1.050*
2018-10-02 10:00:00,-1.758E-01,4C000000*,-703.0,963.384,90,21.4,44.9,0.400,726.9,2.2,1.050*
2018-10-02 10:01:00,-3.279E-01,4C000000*,-703.0,964.597,90,21.3,45.0,0.400,726.9,2.2,1.050*
2018-10-02 10:02:00,-2.792E-01,4C000000*,-703.0,964.192,90,21.4,45.1,0.400,726.9,2.2,1.050*
2018-10-02 10:03:00,-2.632E-01,4C000000*,-703.0,963.384,90,21.5,44.7,0.400,726.6,2.2,1.050*
2018-10-02 10:04:00,-2.545E-01,4C000000*,-703.0,964.192,90,21.5,44.7,0.400,726.9,2.2,1.050*
2018-10-02 10:05:00,-2.757E-01,4C000000*,-703.0,965.001,90,21.4,44.9,0.400,726.9,2.2,1.050*
2018-10-02 10:06:00,-3.455E-01,4C000000*,-703.0,963.788,91,21.5,45.0,0.400,726.6,2.2,1.050*
2018-10-02 10:07:00,-2.523E-01,4C000000*,-703.0,963.788,91,21.6,44.9,0.400,726.6,2.2,1.050*
2018-10-02 10:08:00,-2.204E-01,4C000000*,-703.0,962.171,90,21.5,44.8,0.400,726.9,2.2,1.050*
2018-10-02 10:09:00,-2.854E-01,4C000000*,-703.4,962.979,90,21.5,44.9,0.400,726.6,2.2,1.050*
2018-10-02 10:10:00,-3.073E-01,4C000000*,-703.0,963.788,89,21.5,45.0,0.400,726.6,2.2,1.050*
2018-10-02 10:11:00,-2.973E-01,4C000000*,-703.4,963.788,90,21.5,44.7,0.400,726.9,2.2,1.050*
2018-10-02 10:12:00,-2.628E-01,4C000000*,-703.4,963.384,90,21.6,44.8,0.401,726.6,2.2,1.050*
2018-10-02 10:13:00,-3.248E-01,4C000000*,-702.6,962.575,89,21.6,44.9,0.401,726.6,2.2,1.050*
2018-10-02 10:14:00,-3.188E-01,4C000000*,-703.4,962.979,90,21.7,45.1,0.401,726.6,2.2,1.050*
2018-10-02 10:15:00,-3.156E-01,4C000000*,-703.0,962.575,90,21.6,44.8,0.400,726.6,2.2,1.050*
2018-10-02 10:16:00,-2.667E-01,4C000000*,-703.0,962.575,91,21.7,44.9,0.400,726.6,2.2,1.050*
2018-10-02 10:17:00,-2.188E-01,4C000000*,-703.4,964.192,90,21.7,45.0,0.401,726.9,2.2,1.050*
2018-10-02 10:18:00,-2.503E-01,4C000000*,-703.0,963.384,90,21.7,45.1,0.400,726.6,2.2,1.050*
2018-10-02 10:19:00,-3.304E-01,4C000000*,-703.0,962.575,88,21.8,44.7,0.400,726.6,2.2,1.050*
2018-10-02 10:20:00,-2.379E-01,4C000000*,-703.4,963.384,90,21.7,44.8,0.400,726.9,2.2,1.050*
2018-10-02 10:21:00,-3.228E-01,4C000000*,-702.3,963.788,88,21.8,44.9,0.400,726.9,2.2,1.050*
2018-10-02 10:22:00,-2.804E-01,4C000000*,-703.0,965.001,91,21.7,45.0,0.400,726.9,2.2,1.050*
2018-10-02 10:23:00,-3.163E-01,4C000000*,-703.4,964.192,90,21.8,44.9,0.400,726.6,2.2,1.050*
2018-10-02 10:24:00,-3.040E-01,4C000000*,-703.4,963.788,90,21.8,44.8,0.400,726.9,2.2,1.050*
2018-10-02 10:25:00,-2.857E-01,4C000000*,-703.0,963.788,89,21.8,44.9,0.401,726.6,2.2,1.050*
2018-10-02 10:26:00,-2.366E-01,4C000000*,-703.0,962.979,90,21.8,45.1,0.400,726.9,2.2,1.050*
2018-10-02 10:27:00,-1.888E-01,4C000000*,-703.0,965.001,89,21.8,44.9,0.401,726.9,2.2,1.050*
2018-10-02 10:28:00,-3.020E-01,4C000000*,-703.0,963.384,89,21.8,44.9,0.401,726.9,2.2,1.050*
2018-10-02 10:29:00,-2.879E-01,4C000000*,-702.6,961.767,89,21.7,45.1,0.401,726.9,2.2,1.050*
2018-10-02 10:30:00,-3.603E-01,4C000000*,-703.4,963.788,91,21.7,44.7,0.400,726.6,2.2,1.050*
2018-10-02 10:31:00,-3.222E-01,4C000000*,-703.0,965.809,90,21.9,44.8,0.400,726.6,2.2,1.050*
2018-10-02 10:32:00,-2.678E-01,4C000000*,-703.0,961.767,89,21.9,44.9,0.400,726.6,2.2,1.050*
2018-10-02 10:33:00,-2.885E-01,4C000000*,-702.6,964.597,91,21.8,45.1,0.400,726.6,2.2,1.050*
2018-10-02 10:34:00,-2.778E-01,4C000000*,-703.0,963.788,90,21.9,44.8,0.400,726.9,2.2,1.050*
2018-10-02 10:35:00,-3.041E-01,4C000000*,-703.0,963.788,89,21.9,44.9,0.400,726.6,2.2,1.050*
2018-10-02 10:36:00,-3.466E-01,4C000000*,-703.4,964.192,89,21.9,45.1,0.401,726.6,2.2,1.050*
2018-10-02 10:37:00,-2.913E-01,4C000000*,-703.4,963.384,90,21.9,44.8,0.400,726.6,2.2,1.050*
2018-10-02 10:38:00,-4.126E-01,4C000000*,-703.0,962.979,87,21.9,44.9,0.400,726.9,2.2,1.050*
2018-10-02 10:39:00,-3.030E-01,4C000000*,-703.0,963.788,91,21.9,45.0,0.401,726.9,2.2,1.050*
2018-10-02 10:40:00,-3.160E-01,4C000000*,-703.0,964.192,91,22.0,44.8,0.400,726.6,2.2,1.050*
2018-10-02 10:41:00,-2.715E-01,4C000000*,-703.0,963.384,89,21.9,44.8,0.400,726.9,2.2,1.050*
2018-10-02 10:42:00,-2.805E-01,4C000000*,-703.0,964.192,90,21.9,45.0,0.400,726.9,2.2,1.050*
2018-10-02 10:43:00,-2.692E-01,4C000000*,-703.0,962.575,89,21.9,45.0,0.400,726.6,2.2,1.050*
2018-10-02 10:44:00,-3.599E-01,4C000000*,-703.0,964.192,91,21.9,44.7,0.400,726.9,2.2,1.050*
2018-10-02 10:45:00,-2.971E-01,4C000000*,-703.0,964.192,89,21.9,44.8,0.400,726.6,2.2,1.050*
2018-10-02 10:46:00,-2.944E-01,4C000000*,-703.0,963.384,88,22.0,44.9,0.400,726.6,2.2,1.050*
2018-10-02 10:47:00,-3.122E-01,4C000000*,-703.0,964.192,91,22.0,45.1,0.400,726.6,2.2,1.050*
2018-10-02 10:48:00,-1.816E-01,4C000000*,-703.0,964.192,90,22.0,44.8,0.400,726.6,2.2,1.050*
2018-10-02 10:49:00,-2.698E-01,4C000000*,-703.0,964.192,91,22.0,44.8,0.400,726.9,2.2,1.050*
2018-10-02 10:50:00,-2.992E-01,4C000000*,-703.0,963.384,90,22.1,45.0,0.401,726.6,2.2,1.050*
2018-10-02 10:51:00,-2.351E-01,4C000000*,-703.0,964.192,90,22.0,45.0,0.400,726.6,2.2,1.050*
2018-10-02 10:52:00,-2.874E-01,4C000000*,-703.4,965.405,90,22.0,44.6,0.401,726.6,2.2,1.050*
2018-10-02 10:53:00,-4.155E-01,4C000000*,-702.6,965.405,90,22.0,44.8,0.400,726.6,2.2,1.050*
2018-10-02 10:54:00,-2.947E-01,4C000000*,-703.4,965.809,91,21.9,45.0,0.401,726.9,2.2,1.050*
2018-10-02 10:55:00,-3.284E-01,4C000000*,-703.0,965.001,89,22.1,45.0,0.401,726.6,2.2,1.050*
2018-10-02 10:56:00,-3.337E-01,4C000000*,-703.0,963.788,90,22.0,44.7,0.400,726.6,2.2,1.050*
2018-10-02 10:57:00,-2.684E-01,4C000000*,-703.0,964.597,90,22.1,44.8,0.400,726.6,2.2,1.050*
2018-10-02 10:58:00,-3.555E-01,4C000000*,-703.0,965.001,90,22.0,45.0,0.400,726.9,2.2,1.050*
2018-10-02 10:59:00,-3.887E-01,4C000000*,-703.4,964.597,89,22.1,45.0,0.400,726.6,2.2,1.050*
2018-10-02 11:00:00,-3.259E-01,4C000000*,-703.0,963.788,90,22.0,44.7,0.400,726.6,2.2,1.050*
2018-10-02 11:01:00,-3.515E-01,4C000000*,-703.4,963.384,89,22.0,44.9,0.400,726.9,2.2,1.050*
2018-10-02 11:02:00,-3.472E-01,4C000000*,-703.0,964.597,89,22.0,45.0,0.401,726.9,2.2,1.050*
2018-10-02 11:03:00,-3.317E-01,4C000000*,-702.6,965.001,91,22.1,45.0,0.401,726.6,2.2,1.050*
2018-10-02 11:04:00,-2.346E-01,4C000000*,-703.7,961.767,91,22.0,44.7,0.400,726.6,2.2,1.050*
2018-10-02 11:05:00,-2.696E-01,4C000000*,-703.4,962.171,91,22.1,44.9,0.400,726.6,2.2,1.050*
2018-10-02 11:06:00,-3.548E-01,4C000000*,-703.0,964.192,91,22.1,45.0,0.400,726.9,2.2,1.050*
2018-10-02 11:07:00,-3.689E-01,4C000000*,-703.4,964.192,89,22.1,44.9,0.400,726.6,2.2,1.050*
2018-10-02 11:08:00,-3.179E-01,4C000000*,-702.3,965.001,91,22.1,44.9,0.401,726.6,2.2,1.050*
2018-10-02 11:09:00,-2.415E-01,4C000000*,-703.0,964.597,90,22.2,45.1,0.400,726.6,2.2,1.050*
2018-10-02 11:10:00,-3.327E-01,4C000000*,-702.6,963.384,90,22.2,44.8,0.400,726.6,2.2,1.050*
2018-10-02 11:11:00,-3.246E-01,4C000000*,-703.0,963.788,91,22.1,44.9,0.400,726.6,2.2,1.050*
2018-10-02 11:12:00,-2.048E-01,4C000000*,-703.4,963.384,90,22.2,45.0,0.401,726.6,2.2,1.050*
2018-10-02 11:13:00,-2.938E-01,4C000000*,-702.6,963.788,90,22.2,44.8,0.401,726.6,2.2,1.050*
2018-10-02 11:14:00,-2.609E-01,4C000000*,-703.4,964.192,88,22.2,44.8,0.401,726.6,2.2,1.050*
2018-10-02 11:15:00,-3.802E-01,4C000000*,-703.0,963.788,90,22.1,45.0,0.401,726.6,2.2,1.050*
2018-10-02 11:16:00,-3.498E-01,4C000000*,-702.6,963.384,89,22.2,44.9,0.401,726.6,2.2,1.050*
2018-10-02 11:17:00,-2.874E-01,4C000000*,-703.4,963.384,89,22.2,44.8,0.400,726.9,2.2,1.050*
2018-10-02 11:18:00,-3.256E-01,4C000000*,-703.0,962.575,91,22.2,44.9,0.400,726.9,2.2,1.050*
2018-10-02 11:19:00,-3.923E-01,4C000000*,-703.0,963.788,91,22.3,45.2,0.401,726.6,2.2,1.050*
2018-10-02 11:20:00,-2.802E-01,4C000000*,-703.4,961.767,89,22.2,44.7,0.401,726.9,2.2,1.050*
2018-10-02 11:21:00,-3.102E-01,4C000000*,-702.6,962.171,90,22.2,44.8,0.401,726.9,2.2,1.050*
2018-10-02 11:22:00,-2.832E-01,4C000000*,-703.0,962.575,90,22.2,44.9,0.401,726.9,2.2,1.050*
2018-10-02 11:23:00,-3.479E-01,4C000000*,-703.0,962.979,90,22.2,45.1,0.401,726.6,2.2,1.050*
2018-10-02 11:24:00,-3.491E-01,4C000000*,-703.0,963.788,90,22.2,44.8,0.401,726.9,2.2,1.050*
2018-10-02 11:25:00,-3.057E-01,4C000000*,-703.4,963.384,90,22.2,44.9,0.401,726.6,2.2,1.050*
2018-10-02 11:26:00,-2.220E-01,4C000000*,-703.0,963.384,90,22.2,45.0,0.401,726.6,2.2,1.050*
2018-10-02 11:27:00,-3.158E-01,4C000000*,-703.0,963.788,91,22.2,44.7,0.401,726.6,2.2,1.050*
2018-10-02 11:28:00,-3.724E-01,4C000000*,-703.0,964.597,91,22.2,44.8,0.400,726.6,2.2,1.050*
2018-10-02 11:29:00,-3.114E-01,4C000000*,-702.6,962.979,90,22.2,45.0,0.401,726.6,2.2,1.050*
2018-10-02 11:30:00,-3.254E-01,4C000000*,-703.0,962.171,87,22.3,45.1,0.400,726.3,2.2,1.050*
2018-10-02 11:31:00,-2.522E-01,4C000000*,-703.4,962.979,89,22.3,44.8,0.401,726.6,2.2,1.050*
2018-10-02 11:32:00,-2.800E-01,4C000000*,-703.0,963.788,91,22.2,44.9,0.401,726.6,2.2,1.050*
2018-10-02 11:33:00,-3.035E-01,4C000000*,-703.0,963.788,88,22.3,45.0,0.400,726.6,2.2,1.050*
2018-10-02 11:34:00,-2.699E-01,4C000000*,-703.0,962.575,89,22.3,44.8,0.401,726.3,2.2,1.050*
2018-10-02 11:35:00,-2.797E-01,4C000000*,-703.0,964.192,90,22.3,44.7,0.401,726.6,2.2,1.050*
2018-10-02 11:36:00,-3.002E-01,4C000000*,-703.0,964.597,88,22.2,44.9,0.401,726.3,2.2,1.050*
2018-10-02 11:37:00,-2.483E-01,4C000000*,-703.0,962.171,89,22.3,45.1,0.401,726.6,2.2,1.050*
2018-10-02 11:38:00,-3.111E-01,4C000000*,-703.0,964.192,91,22.3,44.8,0.401,726.6,2.2,1.050*
2018-10-02 11:39:00,-3.741E-01,4C000000*,-703.0,963.788,91,22.3,44.7,0.400,726.6,2.2,1.050*
2018-10-02 11:40:00,-3.432E-01,4C000000*,-703.0,965.001,91,22.4,44.8,0.400,726.6,2.2,1.050*
2018-10-02 11:41:00,-3.882E-01,4C000000*,-703.0,965.405,90,22.3,45.1,0.401,726.6,2.2,1.050*
2018-10-02 11:42:00,-3.795E-01,4C000000*,-703.0,964.597,91,22.3,44.9,0.400,726.3,2.2,1.050*
2018-10-02 11:43:00,-3.715E-01,4C000000*,-703.0,963.384,91,22.3,44.7,0.400,726.3,2.2,1.050*
2018-10-02 11:44:00,-3.183E-01,4C000000*,-703.0,963.788,89,22.4,44.9,0.400,726.3,2.2,1.050*
2018-10-02 11:45:00,-3.580E-01,4C000000*,-703.0,964.597,91,22.3,45.1,0.400,726.3,2.2,1.050*
2018-10-02 11:46:00,-2.849E-01,4C000000*,-703.0,963.788,90,22.4,44.8,0.400,726.6,2.2,1.050*
2018-10-02 11:47:00,-2.170E-01,4C000000*,-703.0,963.788,90,22.4,44.8,0.400,726.6,2.2,1.050*
2018-10-02 11:48:00,-2.916E-01,4C000000*,-703.4,963.788,90,22.4,45.0,0.400,726.6,2.2,1.050*
2018-10-02 11:49:00,-3.023E-01,4C000000*,-703.0,963.788,90,22.4,45.0,0.400,726.6,2.2,1.050*
2018-10-02 11:50:00,-2.554E-01,4C000000*,-703.0,963.788,91,22.5,44.8,0.401,726.6,2.2,1.050*
2018-10-02 11:51:00,-3.986E-01,4C000000*,-702.6,964.597,89,22.5,45.0,0.401,726.6,2.2,1.050*
2018-10-02 11:52:00,-2.775E-01,4C000000*,-703.0,964.597,91,22.4,45.0,0.401,726.6,2.2,1.050*
2018-10-02 11:53:00,-3.486E-01,4C000000*,-703.0,962.575,89,22.4,44.7,0.400,726.3,2.2,1.050*
2018-10-02 11:54:00,-3.314E-01,4C000000*,-703.0,963.788,90,22.4,44.9,0.401,726.6,2.2,1.050*
2018-10-02 11:55:00,-3.437E-01,4C000000*,-703.0,962.575,90,22.4,45.0,0.401,726.6,2.2,1.050*
2018-10-02 11:56:00,-2.737E-01,4C000000*,-703.0,962.575,90,22.4,44.9,0.400,726.3,2.2,1.050*
2018-10-02 11:57:00,-3.913E-01,4C000000*,-702.6,963.384,91,22.4,44.8,0.400,726.6,2.2,1.050*
2018-10-02 11:58:00,-3.728E-01,4C000000*,-702.6,962.575,90,22.4,45.0,0.400,726.3,2.2,1.050*
2018-10-02 11:59:00,-3.183E-01,4C000000*,-703.4,963.788,90,22.4,45.0,0.400,726.3,2.2,1.050*
2018-10-02 12:00:00,-2.338E-01,4C000000*,-703.0,963.788,89,22.4,44.7,0.401,726.6,2.2,1.050*
2018-10-02 12:01:00,-2.880E-01,4C000000*,-703.4,963.384,91,22.5,44.8,0.401,726.6,2.2,1.050*
2018-10-02 12:02:00,-3.397E-01,4C000000*,-702.6,964.597,90,22.5,45.0,0.401,726.6,2.2,1.050*
2018-10-02 12:03:00,-3.337E-01,4C000000*,-703.0,963.384,91,22.5,45.1,0.401,726.6,2.2,1.050*
2018-10-02 12:04:00,-3.157E-01,4C000000*,-703.0,962.171,90,22.5,44.8,0.401,726.6,2.2,1.050*
2018-10-02 12:05:00,-3.536E-01,4C000000*,-703.0,963.384,90,22.5,44.9,0.400,726.6,2.2,1.050*
2018-10-02 12:06:00,-1.984E-01,4C000000*,-703.0,963.384,90,22.5,45.0,0.401,726.6,2.2,1.050*
2018-10-02 12:07:00,-3.353E-01,4C000000*,-703.0,964.597,90,22.5,44.8,0.401,726.6,2.2,1.050*
2018-10-02 12:08:00,-3.624E-01,4C000000*,-703.7,964.192,90,22.5,44.9,0.401,726.6,2.2,1.050*
2018-10-02 12:09:00,-3.037E-01,4C000000*,-703.0,962.575,89,22.5,45.1,0.401,726.6,2.2,1.050*
2018-10-02 12:10:00,-3.308E-01,4C000000*,-703.0,963.384,89,22.5,44.7,0.401,726.6,2.2,1.050*
2018-10-02 12:11:00,-3.123E-01,4C000000*,-703.0,963.384,90,22.4,44.8,0.401,726.6,2.2,1.050*
2018-10-02 12:12:00,-3.652E-01,4C000000*,-703.0,964.192,89,22.6,45.0,0.400,726.6,2.2,1.050*
2018-10-02 12:13:00,-3.326E-01,4C000000*,-703.0,962.979,90,22.5,45.0,0.401,726.6,2.2,1.050*
2018-10-02 12:14:00,-3.427E-01,4C000000*,-703.4,962.979,89,22.5,44.7,0.401,726.6,2.2,1.050*
2018-10-02 12:15:00,-3.176E-01,4C000000*,-703.0,962.979,90,22.5,44.8,0.401,726.6,2.2,1.050*
2018-10-02 12:16:00,-3.963E-01,4C000000*,-703.4,963.788,91,22.4,45.0,0.401,726.6,2.2,1.050*
2018-10-02 12:17:00,-3.966E-01,4C000000*,-703.0,962.979,90,22.6,44.8,0.401,726.6,2.2,1.050*
2018-10-02 12:18:00,-3.401E-01,4C000000*,-703.0,962.979,90,22.5,44.9,0.400,726.9,2.2,1.050*
2018-10-02 12:19:00,-2.307E-01,4C000000*,-703.0,963.384,90,22.6,45.2,0.400,726.6,2.2,1.050*
2018-10-02 12:20:00,-2.426E-01,4C000000*,-702.6,962.575,90,22.5,44.7,0.401,726.6,2.2,1.050*
2018-10-02 12:21:00,-2.836E-01,4C000000*,-703.4,962.979,90,22.5,44.7,0.401,726.6,2.2,1.050*
2018-10-02 12:22:00,-2.598E-01,4C000000*,-703.0,962.979,89,22.5,44.9,0.401,726.6,2.2,1.050*
2018-10-02 12:23:00,-2.905E-01,4C000000*,-703.0,963.788,89,22.5,45.1,0.400,726.9,2.2,1.050*
2018-10-02 12:24:00,-3.178E-01,4C000000*,-703.0,962.979,91,22.5,44.7,0.401,726.6,2.2,1.050*
2018-10-02 12:25:00,-2.011E-01,4C000000*,-703.0,964.192,90,22.5,44.8,0.400,726.6,2.2,1.050*
2018-10-02 12:26:00,-3.542E-01,4C000000*,-703.0,962.575,90,22.5,44.9,0.401,726.6,2.2,1.050*
2018-10-02 12:27:00,-3.743E-01,4C000000*,-703.0,964.597,87,22.5,45.0,0.401,726.9,2.2,1.050*
2018-10-02 12:28:00,-2.690E-01,4C000000*,-703.0,964.192,91,22.5,44.7,0.400,726.6,2.2,1.050*
2018-10-02 12:29:00,-2.543E-01,4C000000*,-703.0,962.979,88,22.5,44.7,0.401,726.6,2.2,1.050*
2018-10-02 12:30:00,-3.458E-01,4C000000*,-703.0,963.384,89,22.6,44.9,0.401,726.6,2.2,1.050*
2018-10-02 12:31:00,-3.547E-01,4C000000*,-703.4,963.384,89,22.5,45.1,0.401,726.6,2.2,1.050*
2018-10-02 12:32:00,-3.135E-01,4C000000*,-703.0,962.575,90,22.6,44.7,0.401,726.6,2.2,1.050*
2018-10-02 12:33:00,-2.719E-01,4C000000*,-703.0,962.575,90,22.6,44.9,0.401,726.6,2.2,1.050*
2018-10-02 12:34:00,-3.278E-01,4C000000*,-703.0,963.788,89,22.6,45.0,0.400,726.6,2.2,1.050*
2018-10-02 12:35:00,-2.674E-01,4C000000*,-702.6,962.171,88,22.6,45.0,0.401,726.6,2.2,1.050*
2018-10-02 12:36:00,-3.456E-01,4C000000*,-703.0,963.384,89,22.5,44.7,0.401,726.6,2.2,1.050*
2018-10-02 12:37:00,-2.809E-01,4C000000*,-703.0,963.384,89,22.6,44.8,0.401,726.6,2.2,1.050*
2018-10-02 12:38:00,-2.694E-01,4C000000*,-702.6,962.979,89,22.6,45.1,0.401,726.6,2.2,1.050*
2018-10-02 12:39:00,-3.813E-01,4C000000*,-703.0,964.192,90,22.6,45.0,0.401,726.6,2.2,1.050*
2018-10-02 12:40:00,-3.251E-01,4C000000*,-703.0,962.575,90,22.6,44.8,0.401,726.6,2.2,1.050*
2018-10-02 12:41:00,-3.250E-01,4C000000*,-703.0,962.171,90,22.6,44.9,0.400,726.6,2.2,1.050*
2018-10-02 12:42:00,-2.899E-01,4C000000*,-703.0,962.575,91,22.6,45.1,0.401,726.3,2.2,1.050*
2018-10-02 12:43:00,-3.254E-01,4C000000*,-703.0,962.979,90,22.6,44.8,0.401,726.6,2.2,1.050*
2018-10-02 12:44:00,-3.407E-01,4C000000*,-703.4,962.575,90,22.7,45.0,0.401,726.6,2.2,1.050*
2018-10-02 12:45:00,-2.637E-01,4C000000*,-703.0,962.575,89,22.6,45.1,0.400,726.3,2.2,1.050*
2018-10-02 12:46:00,-2.462E-01,4C000000*,-703.0,962.979,90,22.6,44.7,0.401,726.6,2.2,1.050*
2018-10-02 12:47:00,-2.599E-01,4C000000*,-703.0,962.575,90,22.6,44.9,0.401,726.6,2.2,1.050*
2018-10-02 12:48:00,-3.091E-01,4C000000*,-703.0,964.192,90,22.7,45.0,0.400,726.3,2.2,1.050*